Broomfield, CO

12:54 PM MDT on June 25, 2017 (GMT -0600)
Jeffco

Weather History for KBJC - March, 2012

Change the Weather History Date:

Wednesday, March 7, 2012

  Actual Average Record
Temperature  
Mean Temperature 28 °F -  
Max Temperature 30 °F 48 °F 67 °F (1986)
Min Temperature 26 °F 27 °F 10 °F (1998)
Degree Days  
Heating Degree Days 37    
Moisture  
Dew Point 26 °F    
Average Humidity 89    
Maximum Humidity 100    
Minimum Humidity 80    
Precipitation  
Precipitation 0.00 in - - ()
Sea Level Pressure  
Sea Level Pressure 29.91 in    
Wind  
Wind Speed 8 mph (North)    
Max Wind Speed 14 mph    
Max Gust Speed -    
Visibility 7 miles    
Events Snow    
Averages and records for this station are not official NWS values.
T = Trace of Precipitation, MM = Missing Value Source: NWS Daily Summary

Daily Weather History Graph

Daily Weather History Graph

Search for Another Location

Airport or City:

Trip Planner

Search our weather history database for the weather conditions in past years. The results will help you decide how hot, cold, wet, or windy it might be!

Date:

Astronomy

Mar. 07, 2012 Rise Set
Actual Time 6:23 AM MST 5:59 PM MST
Civil Twilight 5:56 AM MST 6:26 PM MST
Nautical Twilight 5:25 AM MST 6:57 PM MST
Astronomical Twilight 4:54 AM MST 7:29 PM MST
Moon 5:38 PM MST (3/7) 5:35 AM MST (3/7)
Length of Visible Light 12h 29m
Length of Day
11h 35m
Waxing Gibbous, 99% of the Moon is Illuminated
Mar 7
Waxing Gibbous
Mar 8
Full
Mar 14
Last Quarter
Mar 22
New
Mar 30
First Quarter

Hourly Weather History & Observations

Time (MST) Temp. Windchill Dew Point Humidity Pressure Visibility Wind Dir Wind Speed Gust Speed Precip Events Conditions
5:46 AM 30.2 °F 20.8 °F 26.6 °F 86% 29.79 in 5.0 mi NNE 11.5 mph - N/A   Light Freezing Rain
6:27 AM 28.4 °F 17.5 °F 26.6 °F 93% 29.81 in 3.0 mi North 13.8 mph - N/A   Light Freezing Rain
6:46 AM 28.4 °F 19.7 °F 26.6 °F 93% 29.82 in 3.0 mi NNE 9.2 mph - N/A   Light Freezing Rain
7:18 AM 28.4 °F 19.7 °F 26.6 °F 93% 29.83 in 2.2 mi NNE 9.2 mph - N/A   Light Freezing Drizzle
7:48 AM 28.4 °F 18.0 °F 26.6 °F 93% 29.84 in 2.5 mi North 12.7 mph - N/A   Light Freezing Drizzle
8:50 AM 26.6 °F 18.2 °F 26.6 °F 100% 29.84 in 2.0 mi North 8.1 mph - N/A   Light Freezing Drizzle
9:48 AM 26.6 °F 20.0 °F 23.0 °F 86% 29.85 in 3.0 mi NNE 5.8 mph - N/A   Light Freezing Drizzle
10:36 AM 28.4 °F 24.6 °F 26.6 °F 93% 29.85 in 7.0 mi NE 3.5 mph - N/A   Light Freezing Drizzle
10:48 AM 28.4 °F 24.6 °F 26.6 °F 93% 29.86 in 8.0 mi NNE 3.5 mph - N/A   Overcast
11:25 AM 28.4 °F 21.2 °F 26.6 °F 93% 29.86 in 10.0 mi NE 6.9 mph - N/A   Overcast
11:55 AM 28.4 °F 21.2 °F 26.6 °F 93% 29.87 in 8.0 mi North 6.9 mph - N/A   Overcast
12:48 PM 28.4 °F 22.2 °F 26.6 °F 93% 29.88 in 3.0 mi NNE 5.8 mph - N/A   Overcast
1:15 PM 28.4 °F 23.3 °F 26.6 °F 93% 29.88 in 2.5 mi Variable 4.6 mph - N/A   Overcast
1:53 PM 28.4 °F - 26.6 °F 93% 29.88 in 5.0 mi Calm Calm - N/A   Overcast
2:47 PM 28.4 °F - 26.6 °F 93% 29.88 in 5.0 mi Calm Calm - N/A Snow Light Snow
3:55 PM 30.2 °F 24.3 °F 26.6 °F 86% 29.91 in 10.0 mi SSE 5.8 mph - N/A   Overcast
4:47 PM 30.2 °F - 24.8 °F 80% 29.93 in 12.0 mi Calm Calm - N/A   Overcast
5:50 PM 30.2 °F 24.3 °F 26.6 °F 86% 29.99 in 12.0 mi North 5.8 mph - N/A   Overcast
6:55 PM 30.2 °F 26.7 °F 24.8 °F 80% 30.04 in 10.0 mi Variable 3.5 mph - N/A   Overcast
7:49 PM 30.2 °F - 24.8 °F 80% 30.05 in 10.0 mi Calm Calm - N/A   Overcast
8:47 PM 30.2 °F 23.4 °F 24.8 °F 80% 30.10 in 15.0 mi NW 6.9 mph - N/A   Mostly Cloudy
8:58 PM 30.2 °F 25.4 °F 24.8 °F 80% 30.11 in 15.0 mi WNW 4.6 mph - N/A   Scattered Clouds
9:48 PM 28.4 °F 22.2 °F 24.8 °F 86% 30.13 in 15.0 mi West 5.8 mph - N/A   Partly Cloudy